Location: Hamilton
(37.7830°S, 175.2830°E)
Time: 20:40:38
(UTC+12:00)

SL-08 R/B - Pass Details

Date: 24 January 2019
Orbit: 948 x 992 km, 83.0° (Epoch: 21 April)

Event Time Altitude Azimuth Distance (km) Brightness Sun altitude
Exits shadow 22:38:43 21° 356° (N) 1,982 5.7 -20.1°
Maximum altitude 22:42:58 89° 83° (E) 966 4.4 -20.7°
Drops below altitude 10° 22:49:13 10° 173° (S) 2,721 7.4 -21.5°
Sets 22:51:45 0° 173° (S) 3,679 8.1 -21.8°
